Date String (YYYY-MM-DD hh:mm:ss) UTC,Instrument flags,Ambient pressure (hPa),Sample flow (lpm),Bypass flow (lpm),Sample temperature (°C),Ambient temperature (°C),ASC tube jacket temperature (°C),LED temperature (°C),Box temperature (°C),Sample RH (%),Span deviation,Mass concentration (μg/m³),Mass concentration (μg/m³),Mass concentration (μg/m³)
DateTimeUTC,F1_M11,P_M11,Q1_M11,Q2_M11,T1_M11,T2_M11,T3_M11,T4_M11,T5_M11,U1_M11,ZSPAN_M11,X0_M11,X2_M11,X1_M11
2022-06-23 13:00:00,,0826.7,4.99,0.00,30.2,29.2,00.0,39.0,32.1,14.5,0000.0,0015.43,0004.86,0003.99
2022-06-23 13:01:00,,0826.8,4.99,0.00,30.2,29.2,00.0,39.0,32.1,14.5,0000.0,0014.88,0004.93,0004.00
2022-06-23 13:02:00,,0826.8,5.00,0.00,30.2,29.2,00.0,39.1,32.1,14.4,0000.0,0014.90,0005.00,0004.02
2022-06-23 13:03:00,,0826.8,4.99,0.00,30.3,29.3,00.0,39.1,32.1,14.2,0000.0,0015.54,0005.02,0004.02
2022-06-23 13:04:00,,0826.7,4.99,0.00,30.3,29.3,00.0,39.1,32.1,14.1,0000.0,0015.60,0005.01,0004.01
2022-06-23 13:05:00,,0826.8,5.00,0.00,30.3,29.3,00.0,39.1,32.1,14.1,0000.0,0014.54,0005.02,0004.02
2022-06-23 13:06:00,,0826.8,5.00,0.00,30.3,29.3,00.0,39.1,32.1,14.6,0000.0,0014.39,0005.06,0004.02
2022-06-23 13:07:00,,0826.7,5.01,0.00,30.3,28.7,00.0,39.0,32.0,15.2,0000.0,0013.37,0005.02,0004.03
2022-06-23 13:08:00,,0826.7,5.00,0.00,30.2,27.9,00.0,39.0,31.8,14.6,0000.0,0013.51,0005.05,0004.04
2022-06-23 13:09:00,,0826.7,4.99,0.00,30.1,27.7,00.0,38.9,31.7,14.7,0000.0,0014.19,0005.08,0004.05
2022-06-23 13:10:00,,0826.8,5.00,0.00,30.0,27.7,00.0,38.9,31.7,15.2,0000.0,0014.70,0005.08,0004.05
2022-06-23 13:11:00,,0826.8,5.01,0.00,30.0,27.8,00.0,38.9,31.6,16.1,0000.0,0014.89,0005.13,0004.05
2022-06-23 13:12:00,,0826.8,5.00,0.00,30.0,27.9,00.0,38.9,31.6,16.0,0000.0,0014.71,0005.09,0004.04
2022-06-23 13:13:00,,0826.8,5.00,0.00,29.9,28.0,00.0,38.9,31.6,15.4,0000.0,0014.50,0005.07,0004.03
2022-06-23 13:14:00,,0826.8,5.00,0.00,29.9,28.1,00.0,38.8,31.7,15.6,0000.0,0013.95,0005.06,0004.02
2022-06-23 13:15:00,,0826.8,5.00,0.00,29.9,28.3,00.0,38.8,31.7,15.0,0000.0,0013.22,0005.07,0004.01
2022-06-23 13:16:00,,0826.8,5.00,0.00,29.9,28.4,00.0,38.8,31.7,15.5,0000.0,0012.95,0005.06,0004.00
2022-06-23 13:17:00,,0826.8,4.99,0.00,29.9,28.5,00.0,38.8,31.7,16.1,0000.0,0012.58,0005.00,0003.99
2022-06-23 13:18:00,,0826.9,5.00,0.00,29.9,28.6,00.0,38.8,31.7,16.7,0000.0,0012.38,0004.99,0003.98
2022-06-23 13:19:00,,0826.9,5.00,0.00,29.9,28.6,00.0,38.8,31.7,16.6,0000.0,0012.94,0004.96,0003.95
2022-06-23 13:20:00,,0826.9,5.00,0.00,29.9,28.7,00.0,38.8,31.7,15.6,0000.0,0012.58,0004.96,0003.94
2022-06-23 13:21:00,,0827.1,5.00,0.00,30.0,28.8,00.0,38.8,31.8,16.5,0000.0,0012.72,0005.03,0003.93
2022-06-23 13:22:00,,0827.0,5.00,0.00,30.0,28.8,00.0,38.8,31.7,17.7,0000.0,0012.17,0005.01,0003.93
2022-06-23 13:23:00,,0827.0,5.00,0.00,30.0,28.9,00.0,38.8,31.8,18.6,0000.0,0011.50,0005.04,0003.93
2022-06-23 13:24:00,,0827.0,4.98,0.00,30.0,28.9,00.0,38.8,31.8,17.9,0000.0,0011.74,0005.03,0003.93
2022-06-23 13:25:00,,0827.2,5.01,0.00,30.0,29.0,00.0,38.8,31.9,16.9,0000.0,0011.94,0005.03,0003.92
2022-06-23 13:26:00,,0827.1,5.00,0.00,30.0,29.0,00.0,38.8,31.9,16.5,0000.0,0012.82,0005.02,0003.93
2022-06-23 13:27:00,,0826.9,5.00,0.00,30.0,29.0,00.0,38.9,31.9,17.2,0000.0,0012.53,0004.98,0003.93
2022-06-23 13:28:00,,0826.9,5.00,0.00,30.1,29.1,00.0,38.9,31.9,15.4,0000.0,0012.64,0005.00,0003.93
2022-06-23 13:29:00,,0827.0,5.00,0.00,30.1,29.1,00.0,38.9,32.0,16.1,0000.0,0012.81,0005.03,0003.92
2022-06-23 13:30:00,,0827.1,5.00,0.00,30.1,29.1,00.0,38.9,32.0,15.6,0000.0,0012.27,0005.01,0003.92
2022-06-23 13:31:00,,0827.2,5.00,0.00,30.1,29.2,00.0,38.9,32.0,15.3,0000.0,0012.79,0004.99,0003.91
2022-06-23 13:32:00,,0827.1,4.99,0.00,30.1,29.1,00.0,38.9,32.0,15.4,0000.0,0012.59,0004.88,0003.90
2022-06-23 13:33:00,,0826.8,5.00,0.00,30.1,28.7,00.0,38.9,31.9,15.0,0000.0,0013.62,0004.84,0003.88
2022-06-23 13:34:00,,0826.8,5.00,0.00,30.1,27.9,00.0,38.8,31.7,15.7,0000.0,0015.05,0004.85,0003.86
2022-06-23 13:35:00,,0826.8,5.01,0.00,30.0,27.7,00.0,38.7,31.6,15.5,0000.0,0015.36,0004.87,0003.85
2022-06-23 13:36:00,,0826.8,5.00,0.00,29.9,27.7,00.0,38.7,31.6,17.6,0000.0,0015.43,0004.88,0003.85
2022-06-23 13:37:00,,0826.8,5.00,0.00,29.9,27.8,00.0,38.7,31.6,18.0,0000.0,0014.37,0004.86,0003.84
2022-06-23 13:38:00,,0826.9,4.99,0.00,29.9,27.9,00.0,38.7,31.6,18.8,0000.0,0014.89,0004.86,0003.83
2022-06-23 13:39:00,,0826.8,5.00,0.00,29.8,28.0,00.0,38.7,31.6,18.1,0000.0,0015.19,0004.85,0003.82
2022-06-23 13:40:00,,0826.9,5.01,0.00,29.8,28.2,00.0,38.7,31.6,17.0,0000.0,0015.72,0004.82,0003.81
2022-06-23 13:41:00,,0826.8,5.01,0.00,29.8,28.3,00.0,38.7,31.6,16.0,0000.0,0015.88,0004.86,0003.81
2022-06-23 13:42:00,,0826.8,5.00,0.00,29.8,28.4,00.0,38.7,31.6,15.7,0000.0,0015.74,0004.91,0003.80
2022-06-23 13:43:00,,0826.8,4.99,0.00,29.8,28.5,00.0,38.7,31.6,15.1,0000.0,0015.41,0004.94,0003.80
2022-06-23 13:44:00,,0826.8,5.00,0.00,29.8,28.5,00.0,38.7,31.7,14.7,0000.0,0014.55,0004.96,0003.80
2022-06-23 13:45:00,,0826.8,5.01,0.00,29.8,28.6,00.0,38.7,31.7,15.0,0000.0,0013.13,0004.94,0003.80
2022-06-23 13:46:00,,0826.8,5.01,0.00,29.9,28.7,00.0,38.7,31.7,16.2,0000.0,0013.33,0004.89,0003.81
2022-06-23 13:47:00,,0826.8,4.99,0.00,29.9,28.7,00.0,38.7,31.7,16.5,0000.0,0013.90,0004.86,0003.81
2022-06-23 13:48:00,,0826.8,5.00,0.00,29.9,28.8,00.0,38.7,31.8,15.9,0000.0,0014.18,0004.88,0003.81
2022-06-23 13:49:00,,0826.8,5.00,0.00,29.9,28.8,00.0,38.7,31.7,15.1,0000.0,0014.09,0004.87,0003.80
2022-06-23 13:50:00,,0826.8,5.01,0.00,29.9,28.9,00.0,38.7,31.7,16.7,0000.0,0013.91,0004.87,0003.81
2022-06-23 13:51:00,,0826.8,5.01,0.00,29.9,28.9,00.0,38.7,31.8,16.9,0000.0,0013.47,0004.85,0003.81
2022-06-23 13:52:00,,0827.0,5.00,0.00,29.9,28.9,00.0,38.8,31.8,16.7,0000.0,0013.53,0004.83,0003.81
2022-06-23 13:53:00,,0827.1,5.00,0.00,30.0,29.0,00.0,38.8,31.8,17.5,0000.0,0013.52,0004.83,0003.81
2022-06-23 13:54:00,,0826.9,5.00,0.00,30.0,29.0,00.0,38.8,31.9,16.2,0000.0,0013.70,0004.84,0003.83
2022-06-23 13:55:00,,0826.8,5.01,0.00,30.0,29.0,00.0,38.8,31.9,15.7,0000.0,0013.94,0004.85,0003.84
2022-06-23 13:56:00,,0826.9,5.01,0.00,30.0,28.9,00.0,38.8,31.9,16.6,0000.0,0013.87,0004.82,0003.83
2022-06-23 13:57:00,,0827.1,5.00,0.00,30.0,28.2,00.0,38.7,31.7,17.1,0000.0,0013.80,0004.89,0003.83
2022-06-23 13:58:00,,0826.8,4.99,0.00,29.9,27.8,00.0,38.6,31.6,16.2,0000.0,0014.95,0004.92,0003.83
2022-06-23 13:59:00,,0826.8,5.00,0.00,29.9,27.7,00.0,38.6,31.5,16.2,0000.0,0015.17,0004.91,0003.83
